カタログに戻る

COSMOS 2251 DEB

運用中VLEO
NORAD 34006·DEBRIS·🇷🇺 Russia

打ち上げ Jun 16, 1993 から Plesetsk Cosmodrome

Loading…

次のパス (今後24時間)

TLE

最新Source: Space-Track

元期: Sep 13, 2026, 13:21 UTC

1 34006U 93036GR  26256.55671111  .00048539  00000-0  20564-2 0  9990
2 34006  74.0541 297.9007 0005177 307.4941 174.9062 15.22907462928127

AllMySatでCOSMOS 2251 DEBをリアルタイム追跡

Download on the App Store